Date,TemperatureHighF,TemperatureAvgF,TemperatureLowF,DewpointHighF,DewpointAvgF,DewpointLowF,HumidityHigh,HumidityAvg,HumidityLow,PressureMaxIn,PressureMinIn,WindSpeedMaxMPH,WindSpeedAvgMPH,GustSpeedMaxMPH,PrecipitationSumIn
2013-1-1,45,32,19,28,23,17,92,72,38,30.36,30.22,3,0,10,0.00
2013-1-2,52,36,23,28,25,20,92,65,37,30.26,30.10,8,1,13,0.01
2013-1-3,46,35,26,34,28,23,88,77,50,30.31,30.11,12,5,20,0.00
2013-1-4,47,36,29,31,29,25,89,75,54,30.39,30.28,6,2,19,0.00
2013-1-5,56,35,23,31,24,20,93,70,26,30.45,30.33,2,0,5,0.00
2013-1-6,57,44,31,27,23,18,67,45,27,30.33,29.99,13,4,18,0.00
2013-1-7,58,43,32,28,21,7,72,47,13,29.99,29.78,9,2,14,0.00
2013-1-8,60,44,30,30,24,19,76,49,20,30.14,29.88,11,3,18,0.00
2013-1-9,60,40,25,26,21,16,81,50,18,30.31,30.13,10,1,16,0.00
2013-1-10,66,48,30,25,22,19,75,42,18,30.14,29.85,16,7,30,0.00
2013-1-11,50,39,21,37,17,6,75,43,18,30.00,29.85,20,5,30,0.00
2013-1-12,40,26,14,18,10,7,85,54,29,30.25,29.99,10,2,15,0.00
2013-1-13,46,27,10,14,6,-2,92,48,14,30.27,30.09,7,1,16,0.00
2013-1-14,42,26,11,11,5,1,76,44,20,30.31,30.16,10,2,17,0.00
2013-1-15,40,25,14,5,1,-3,57,37,16,30.50,30.31,9,4,14,0.00
2013-1-16,54,33,18,10,4,-1,47,32,14,30.54,30.37,9,1,14,0.00
2013-1-17,62,43,25,16,12,7,48,30,15,30.41,30.27,11,2,18,0.00
2013-1-18,64,43,25,19,16,12,60,37,14,30.35,30.19,7,1,10,0.00
2013-1-19,70,47,27,30,22,16,66,42,16,30.33,30.17,2,0,11,0.00
2013-1-20,72,52,34,34,27,20,63,41,22,30.24,30.02,4,0,10,0.00
2013-1-21,71,50,34,38,30,27,77,51,24,30.16,30.03,7,1,13,0.00
2013-1-22,72,50,32,35,30,26,88,52,18,30.24,30.12,8,1,14,0.00
2013-1-23,74,52,31,32,28,24,75,46,20,30.29,30.15,10,1,14,0.00
2013-1-24,70,55,40,42,36,30,68,51,27,30.25,30.15,6,1,9,0.00
2013-1-25,72,58,46,51,42,40,92,58,33,30.20,29.97,11,1,11,0.02
2013-1-26,65,56,49,54,48,41,95,78,45,29.98,29.85,15,6,26,0.27
2013-1-27,60,52,47,49,46,43,95,80,55,30.00,29.93,8,2,15,0.08
2013-1-28,54,47,35,46,40,32,92,80,53,29.97,29.86,19,8,31,0.24
2013-1-29,46,37,29,33,24,18,93,63,33,30.25,29.96,13,5,21,0.05
2013-1-30,52,38,23,27,20,13,88,55,22,30.42,30.25,7,1,13,0.00
2013-1-31,59,41,26,30,24,20,82,56,25,30.33,30.20,3,0,7,0.00
2013-2-1,67,41,26,33,26,22,88,60,18,30.31,30.20,0,0,6,0.00
2013-2-2,71,49,30,36,24,14,89,47,11,30.31,30.17,8,1,13,0.00
2013-2-3,66,50,42,44,33,25,82,54,22,30.19,29.96,12,1,19,0.00
2013-2-4,68,50,33,39,36,30,92,64,32,30.09,29.95,7,1,17,0.00
2013-2-5,68,50,32,41,34,30,94,62,24,30.06,29.93,6,1,14,0.00
2013-2-6,67,50,35,38,33,29,89,57,25,30.05,29.89,8,2,20,0.00
2013-2-7,66,47,29,38,30,25,92,58,21,30.13,30.00,5,0,10,0.00
2013-2-8,65,50,34,29,21,3,72,38,9,30.02,29.79,20,9,33,0.00
2013-2-9,50,41,26,33,24,17,74,52,29,30.07,29.74,17,7,24,0.00
2013-2-10,57,38,18,27,14,-4,89,47,8,30.14,30.00,11,3,22,0.00
2013-2-11,52,38,26,33,21,9,92,54,28,30.18,29.98,16,6,25,0.00
2013-2-12,47,34,21,32,22,13,95,69,25,30.32,30.18,7,2,16,0.03
2013-2-13,58,40,20,26,19,11,88,49,16,30.30,30.14,9,1,9,0.00
2013-2-14,64,43,21,23,19,15,79,43,17,30.21,30.07,8,1,13,0.00
2013-2-15,64,47,33,27,16,-6,66,34,6,30.31,30.17,11,2,19,0.00
2013-2-16,67,49,30,18,12,5,53,26,9,30.34,30.08,11,2,21,0.00
2013-2-17,71,50,24,17,10,0,66,26,7,30.08,29.89,17,5,24,0.00
2013-2-18,68,50,29,18,11,1,54,24,7,30.06,29.93,9,2,21,0.00
2013-2-19,60,49,40,40,26,12,65,43,25,29.98,29.71,23,9,33,0.00
2013-2-20,47,38,28,36,29,21,94,72,43,29.98,29.65,22,10,31,0.11
2013-2-21,49,41,25,32,28,23,94,61,38,30.11,29.97,7,1,10,0.10
2013-2-22,55,40,26,33,29,24,93,68,34,30.19,30.07,10,1,19,0.00
2013-2-23,68,47,25,31,24,16,91,50,14,30.19,29.85,17,4,22,0.00
2013-2-24,52,41,26,24,15,3,53,36,20,30.09,29.77,19,6,29,0.00
2013-2-25,55,37,20,17,10,3,64,37,12,30.28,30.09,8,2,15,0.00
2013-2-26,66,42,20,22,11,1,78,38,8,30.13,29.98,14,3,23,0.00
2013-2-27,59,44,26,15,10,2,54,28,11,30.24,30.10,7,1,11,0.00
2013-2-28,62,46,32,9,2,-13,35,19,5,30.35,30.22,11,4,16,0.00
2013-3-1,70,48,25,17,11,5,47,25,10,30.37,30.22,12,2,16,0.00
2013-3-2,78,53,28,23,14,-5,65,29,4,30.37,30.14,9,1,14,0.00
2013-3-3,81,57,31,23,10,-16,62,24,2,30.17,29.93,12,3,21,0.00
2013-3-4,72,60,44,31,19,-5,43,21,7,30.02,29.77,13,4,27,0.00
2013-3-5,74,56,36,29,24,19,61,33,13,30.12,30.00,10,2,18,0.00
2013-3-6,78,63,51,30,23,16,36,23,11,30.01,29.83,15,5,29,0.00
2013-3-7,72,58,42,29,25,21,57,30,15,29.93,29.84,12,4,22,0.00
2013-3-8,58,49,42,47,38,24,89,66,36,29.93,29.74,22,10,34,0.51
2013-3-9,52,43,35,34,30,26,82,62,38,30.10,29.91,12,4,26,0.00
2013-3-10,58,46,34,36,31,22,92,62,25,30.19,30.09,10,3,15,0.00
2013-3-11,70,48,30,33,24,8,85,48,9,30.22,30.02,5,1,6,0.00
2013-3-12,78,56,31,32,24,16,83,37,10,30.11,30.01,4,0,9,0.00
2013-3-13,82,61,42,30,22,12,55,28,8,30.16,30.01,7,1,14,0.00
2013-3-14,85,62,38,31,19,5,61,25,5,30.13,30.00,5,0,12,0.00
2013-3-15,87,64,39,26,15,-1,58,22,4,30.05,29.88,13,3,16,0.00
2013-3-16,81,65,42,25,15,4,43,18,6,29.91,29.71,16,4,24,0.00
2013-3-17,76,63,45,24,19,11,32,19,10,29.89,29.74,14,5,23,0.00
2013-3-18,78,62,46,35,26,14,57,28,9,29.94,29.83,9,3,20,0.00
2013-3-19,75,62,47,31,25,14,44,27,11,30.02,29.87,11,4,18,0.00
2013-3-20,81,62,40,33,26,20,65,31,11,30.04,29.83,9,2,17,0.00
2013-3-21,76,62,45,30,23,10,49,26,8,29.84,29.68,10,2,17,0.00
2013-3-22,75,64,54,33,26,14,41,25,10,29.75,29.61,13,5,27,0.00
2013-3-23,71,59,43,31,20,6,54,25,8,29.95,29.75,14,4,22,0.00
2013-3-24,73,54,34,18,11,3,47,21,8,30.00,29.81,12,2,19,0.00
2013-3-25,74,57,34,17,11,4,37,17,9,30.00,29.88,7,1,12,0.00
2013-3-26,80,62,38,18,14,7,41,18,6,30.00,29.83,9,2,20,0.00
2013-3-27,77,64,46,29,20,10,36,21,8,29.95,29.85,13,4,21,0.00
2013-3-28,79,64,44,35,25,11,55,26,8,30.01,29.89,9,3,17,0.00
2013-3-29,82,66,48,31,24,15,39,21,10,30.05,29.90,11,2,21,0.00
2013-3-30,78,64,49,25,19,0,38,20,5,30.01,29.86,10,2,15,0.00
2013-3-31,82,63,41,27,23,18,47,25,10,30.00,29.85,7,1,16,0.00
2013-4-1,82,63,41,30,21,8,45,23,6,29.96,29.81,12,4,23,0.00
2013-4-2,77,60,39,28,18,-10,55,25,3,29.92,29.77,15,3,22,0.00
2013-4-3,77,61,41,26,18,8,43,22,7,30.01,29.89,11,3,19,0.00
2013-4-4,83,63,41,27,18,4,44,20,5,30.07,29.89,9,1,15,0.00
2013-4-5,84,67,46,28,21,15,35,20,9,29.94,29.78,13,4,22,0.00
2013-4-6,81,67,52,35,28,21,44,26,12,29.88,29.75,12,4,25,0.00
2013-4-7,82,63,49,33,28,23,50,29,12,29.83,29.68,13,4,21,0.00
2013-4-8,75,63,53,39,33,28,57,34,18,29.68,29.35,27,15,40,0.00
2013-4-9,57,50,44,41,33,25,81,54,29,29.75,29.45,26,9,35,0.06
2013-4-10,64,58,42,33,24,20,72,28,19,29.99,29.89,13,5,19,0.00
2013-4-11,77,65,47,28,20,13,46,19,10,29.98,29.76,7,2,15,0.00
2013-4-12,76,60,40,25,21,17,48,25,11,29.82,29.67,7,2,15,0.00
2013-4-13,79,64,43,26,23,20,45,23,11,29.82,29.67,10,2,16,0.00
2013-4-14,78,65,52,37,29,16,49,28,11,29.75,29.63,18,9,29,0.00
2013-4-15,78,65,50,40,32,25,57,32,15,29.75,29.63,24,12,37,0.00
2013-4-16,78,66,52,46,29,12,58,31,8,29.78,29.67,16,7,29,0.00
2013-4-17,67,58,48,46,28,8,60,34,15,29.94,29.67,16,9,25,0.00
2013-4-18,66,53,35,12,5,-7,33,16,6,30.14,29.94,10,5,17,0.00
2013-4-19,75,57,33,8,0,-13,30,12,3,30.19,29.94,10,2,16,0.00
2013-4-20,80,60,34,12,2,-8,25,12,3,30.00,29.85,14,4,26,0.00
2013-4-21,86,66,38,14,9,1,33,13,4,30.03,29.86,8,2,15,0.00
2013-4-22,88,68,44,19,11,2,28,13,4,29.94,29.74,14,4,20,0.01
2013-4-23,84,72,57,23,19,12,24,14,7,29.76,29.68,14,8,25,0.00
2013-4-24,85,73,64,23,14,9,16,11,6,29.85,29.77,7,4,18,0.00
2013-4-25,78,65,56,31,24,17,33,22,11,29.95,29.78,18,6,26,0.00
2013-4-26,83,64,40,26,12,-9,45,18,3,30.05,29.94,9,1,14,0.00
2013-4-27,84,63,43,24,18,0,38,20,4,30.04,29.87,6,1,12,0.00
2013-4-28,88,84,71,22,9,-3,15,6,3,29.86,29.68,6,3,14,0.00
2013-4-29,91,85,62,18,7,3,18,6,4,29.78,29.60,7,2,19,0.00
2013-4-30,89,82,68,21,15,9,17,8,5,29.74,29.64,11,6,24,0.00
2013-5-1,87,80,64,25,17,11,21,10,6,29.84,29.77,9,4,20,0.00
2013-5-2,81,76,65,26,21,9,14,12,10,30.03,29.93,11,7,18,0.00
2013-5-3,80,70,56,20,16,13,22,13,8,30.03,29.79,10,3,17,0.00
2013-5-4,85,70,45,32,22,18,34,18,9,29.80,29.66,11,4,21,0.00
2013-5-5,84,75,66,36,28,20,32,19,10,29.82,29.70,11,7,24,0.00
2013-5-6,80,68,51,40,35,29,53,32,16,29.88,29.79,11,4,23,0.00
2013-5-7,79,71,61,41,30,21,44,23,12,29.91,29.80,14,6,27,0.00
2013-5-8,78,66,49,34,28,18,52,28,11,29.93,29.84,12,6,22,0.00
2013-5-9,80,73,61,40,27,22,46,20,12,29.92,29.80,8,5,20,0.00
2013-5-10,79,72,55,34,30,26,39,22,16,29.98,29.88,10,3,16,0.00
2013-5-11,78,73,61,38,35,31,42,26,20,30.06,29.97,9,4,16,0.00
2013-5-12,81,72,57,39,30,25,42,22,13,30.07,29.90,13,6,22,0.00
2013-5-13,85,70,51,38,26,10,41,22,7,30.04,29.88,11,3,27,0.00
2013-5-14,88,73,50,38,33,24,57,27,10,29.94,29.77,14,2,23,0.00
2013-5-15,92,76,56,37,33,30,42,23,12,29.90,29.75,9,2,20,0.00
2013-5-16,91,82,64,35,23,9,24,12,5,29.84,29.70,12,5,21,0.00
2013-5-17,87,73,52,32,24,14,37,18,7,29.81,29.72,11,4,23,0.00
2013-5-18,86,73,55,34,26,11,42,20,6,29.82,29.73,12,5,23,0.00
2013-5-19,89,72,52,36,25,9,47,21,5,29.83,29.68,7,1,15,0.00
2013-5-20,90,72,47,35,27,17,44,21,9,29.82,29.67,12,3,21,0.00
2013-5-21,91,72,47,24,16,5,34,14,4,29.84,29.68,7,2,18,0.00
2013-5-22,94,74,49,25,18,1,28,14,3,29.76,29.63,11,4,21,0.00
2013-5-23,93,77,58,36,23,6,31,16,4,29.76,29.67,9,4,21,0.00
2013-5-24,92,76,58,44,24,5,53,21,4,29.83,29.73,9,3,16,0.00
2013-5-25,92,74,52,36,22,11,35,16,5,29.86,29.76,9,3,19,0.00
2013-5-26,92,75,54,31,18,-1,30,14,3,29.86,29.77,11,4,21,0.00
2013-5-27,93,75,51,33,15,-8,38,15,2,29.81,29.65,11,3,18,0.00
2013-5-28,90,72,47,30,16,-3,32,14,3,29.69,29.55,11,4,22,0.00
2013-5-29,89,75,58,45,32,24,41,23,10,29.65,29.56,8,4,21,0.00
2013-5-30,93,77,62,53,39,27,68,31,10,29.73,29.63,10,5,20,0.00
2013-5-31,96,79,55,54,39,28,74,29,9,29.77,29.62,10,2,18,0.00
2013-6-1,97,78,54,40,33,23,49,23,7,29.75,29.59,5,1,12,0.00
2013-6-2,100,83,61,42,32,24,37,18,7,29.69,29.55,10,3,21,0.00
2013-6-3,97,80,62,38,27,12,31,17,5,29.71,29.62,11,4,20,0.00
2013-6-4,96,80,57,45,34,24,43,22,8,29.77,29.67,11,3,18,0.00
2013-6-5,98,86,66,39,18,0,25,10,3,29.78,29.65,8,3,19,0.00
2013-6-6,98,79,51,25,18,8,28,12,4,29.74,29.60,7,1,12,0.00
2013-6-7,102,81,57,30,23,11,29,14,4,29.71,29.52,6,1,13,0.00
2013-6-8,100,83,62,37,27,19,27,15,6,29.71,29.59,13,5,24,0.00
2013-6-9,100,82,59,43,27,18,38,17,6,29.77,29.66,10,3,23,0.00
2013-6-10,103,84,60,33,26,20,27,14,7,29.79,29.63,13,2,27,0.00
2013-6-11,104,86,61,33,26,18,29,13,6,29.76,29.60,12,3,19,0.00
2013-6-12,104,85,70,44,31,24,33,16,6,29.78,29.60,13,5,23,0.00
2013-6-13,101,85,70,53,43,29,52,26,11,29.75,29.60,13,4,21,0.00
2013-6-14,96,80,67,62,53,39,70,42,21,29.74,29.61,11,3,14,0.03
2013-6-15,95,78,65,59,54,46,75,46,23,29.81,29.71,11,4,23,0.00
2013-6-16,98,81,62,57,46,32,76,35,11,29.84,29.71,8,2,19,0.00
2013-6-17,99,80,57,41,30,20,46,19,7,29.83,29.68,11,2,22,0.00
2013-6-18,100,80,56,38,22,5,41,16,3,29.78,29.65,8,3,17,0.00
2013-6-19,101,82,59,35,26,14,28,15,6,29.69,29.58,15,4,23,0.00
2013-6-20,99,81,59,39,27,-7,31,16,2,29.72,29.63,13,4,23,0.00
2013-6-21,98,83,62,46,36,20,46,22,6,29.75,29.64,12,4,24,0.00
2013-6-22,98,82,65,40,30,18,34,17,6,29.75,29.62,11,4,23,0.00
2013-6-23,96,81,65,38,33,28,31,19,10,29.73,29.59,15,5,26,0.00
2013-6-24,95,80,68,44,38,33,34,23,13,29.75,29.65,12,4,26,0.00
2013-6-25,99,82,64,44,30,18,47,19,6,29.81,29.70,10,3,19,0.00
2013-6-26,99,82,58,35,28,21,31,16,9,29.91,29.77,9,2,16,0.00
2013-6-27,102,84,60,52,33,22,49,18,9,29.91,29.75,11,4,20,0.00
2013-6-28,105,87,65,36,32,27,28,15,7,29.83,29.67,14,2,18,0.00
2013-6-29,103,88,70,42,34,25,27,16,7,29.77,29.59,9,2,17,0.00
2013-6-30,103,84,70,63,47,39,74,34,12,29.75,29.54,16,3,26,0.08
2013-7-1,99,84,70,62,55,41,77,42,16,29.80,29.65,7,2,15,0.00
2013-7-2,95,80,65,62,56,49,85,49,21,29.89,29.69,14,3,22,0.09
2013-7-3,96,81,67,62,54,48,83,46,20,29.84,29.58,14,2,22,0.31
2013-7-4,98,81,66,64,57,48,85,50,19,29.74,29.58,13,4,19,0.00
2013-7-5,95,76,67,66,62,52,88,65,28,29.75,29.62,16,2,16,0.65
2013-7-6,99,77,64,69,63,49,94,68,20,29.75,29.61,14,0,20,0.16
2013-7-7,98,79,68,68,62,51,89,61,21,29.77,29.60,14,1,22,0.07
2013-7-8,97,81,70,65,61,53,80,54,24,29.88,29.70,11,2,21,0.00
2013-7-9,93,76,63,67,63,56,94,69,30,29.95,29.72,19,4,27,5.02
2013-7-10,88,75,65,68,65,62,96,75,46,29.92,29.76,13,4,27,0.39
2013-7-11,88,75,65,68,65,61,95,74,40,29.92,29.72,9,2,19,0.10
2013-7-12,92,78,66,69,62,56,93,62,31,29.86,29.69,10,2,17,0.09
2013-7-13,92,78,66,66,62,56,88,60,30,29.84,29.67,19,4,24,0.32
2013-7-14,94,80,69,67,62,54,85,59,27,29.82,29.67,11,2,20,0.00
2013-7-15,90,78,69,67,64,59,89,64,38,29.79,29.61,16,3,24,0.09
2013-7-16,81,69,66,66,64,63,96,85,56,29.95,29.78,10,1,24,0.84
2013-7-17,87,74,65,66,61,56,97,68,36,29.98,29.84,10,2,17,0.01
2013-7-18,83,74,65,63,60,57,84,63,44,29.92,29.77,8,2,17,0.01
2013-7-19,76,70,67,66,64,62,90,81,69,29.85,29.75,8,1,13,0.12
2013-7-20,78,72,65,68,65,63,95,81,62,29.82,29.71,9,3,17,0.04
2013-7-21,86,75,66,66,63,59,92,67,42,29.83,29.72,8,4,17,0.00
2013-7-22,88,74,66,66,63,60,88,72,40,29.87,29.77,7,1,14,0.00
2013-7-23,88,74,67,68,65,60,92,76,40,29.88,29.76,11,2,21,0.89
2013-7-24,85,74,68,69,65,61,92,75,46,29.87,29.76,8,1,14,0.02
2013-7-25,88,75,68,69,66,62,93,75,42,29.92,29.81,9,1,14,0.00
2013-7-26,92,74,67,69,66,62,93,78,38,29.99,29.89,14,1,25,0.59
2013-7-27,89,75,67,68,65,60,94,75,39,29.94,29.78,13,1,16,0.02
2013-7-28,91,78,66,68,62,56,93,63,33,29.81,29.70,10,2,17,0.00
2013-7-29,93,80,67,63,58,52,84,52,26,29.89,29.76,9,3,15,0.00
2013-7-30,92,78,66,62,58,50,82,53,24,29.98,29.86,5,1,13,0.00
2013-7-31,94,80,71,68,62,56,88,58,30,29.93,29.80,9,1,16,0.04
2013-8-1,77,72,67,68,64,61,92,78,60,29.95,29.84,8,1,13,0.09
2013-8-2,88,73,66,67,65,60,93,77,45,29.91,29.83,14,2,15,0.91
2013-8-3,91,76,62,68,62,57,91,65,35,29.93,29.80,3,0,9,0.00
2013-8-4,88,77,71,65,62,59,77,61,38,29.89,29.78,8,2,13,0.00
2013-8-5,83,72,62,66,62,53,94,75,43,29.98,29.81,18,3,25,1.05
2013-8-6,81,70,62,67,63,60,95,80,53,29.93,29.85,7,2,13,0.13
2013-8-7,86,72,60,63,59,55,96,68,36,29.97,29.85,9,2,17,0.01
2013-8-8,90,74,58,61,55,47,92,59,24,29.90,29.77,3,0,9,0.00
2013-8-9,92,75,57,62,56,52,92,57,26,29.85,29.76,7,1,20,0.00
2013-8-10,89,74,62,63,56,48,77,56,27,29.91,29.80,9,1,16,0.00
2013-8-11,88,76,63,64,62,58,90,63,41,29.89,29.74,9,2,13,0.00
2013-8-12,93,78,64,66,62,56,90,61,29,29.85,29.73,9,1,13,0.00
2013-8-13,94,77,64,62,53,-100,74,49,28,29.88,29.73,7,1,11,0.00
2013-8-14,95,78,69,65,61,52,83,58,31,29.91,29.72,14,4,24,0.01
2013-8-15,92,79,68,63,60,54,78,54,28,29.88,29.76,3,0,18,0.00
2013-8-16,96,81,66,64,59,51,84,52,24,29.86,29.75,7,1,13,0.00
2013-8-17,97,81,63,65,58,50,89,51,22,29.86,29.69,6,1,12,0.00
2013-8-18,98,80,67,61,55,50,73,45,21,29.85,29.73,11,2,21,0.00
2013-8-19,96,80,68,61,56,50,78,49,22,29.85,29.71,8,1,17,0.00
2013-8-20,96,78,68,67,60,52,89,57,26,29.87,29.67,12,2,15,0.39
2013-8-21,92,76,65,66,62,56,93,65,32,29.85,29.76,8,0,10,0.02
2013-8-22,92,77,62,66,59,47,96,60,22,29.87,29.71,9,1,15,0.00
2013-8-23,91,76,64,63,57,52,92,54,28,29.84,29.64,13,2,19,0.39
2013-8-24,79,70,62,65,63,60,96,80,57,29.89,29.79,10,1,19,0.66
2013-8-25,85,73,67,67,65,62,94,77,50,29.92,29.80,6,1,11,0.00
2013-8-26,90,78,66,67,63,57,96,66,33,29.88,29.72,10,2,17,0.00
2013-8-27,91,78,63,66,59,50,91,58,25,29.80,29.67,14,2,23,0.02
2013-8-28,85,75,65,65,62,59,84,66,43,29.89,29.72,9,3,18,0.00
2013-8-29,80,71,68,68,66,64,95,83,60,29.99,29.87,11,1,15,0.07
2013-8-30,87,73,67,68,65,61,96,77,44,29.99,29.87,5,0,8,0.00
2013-8-31,92,76,60,65,60,57,95,62,34,29.93,29.75,7,1,12,0.00
2013-9-1,92,77,61,64,60,52,92,60,27,29.83,29.70,7,1,14,0.00
2013-9-2,90,76,63,68,62,58,90,65,38,29.89,29.70,8,1,13,0.47
2013-9-3,89,75,64,70,61,57,91,66,35,29.86,29.73,11,2,17,0.21
2013-9-4,91,74,61,65,59,51,95,66,26,29.90,29.80,8,2,14,0.00
2013-9-5,92,76,60,62,57,51,89,56,26,29.89,29.79,9,1,16,0.00
2013-9-6,92,75,60,62,57,54,90,58,28,29.91,29.73,16,3,28,0.09
2013-9-7,78,69,65,66,63,61,93,82,59,29.90,29.80,5,1,17,0.17
2013-9-8,79,69,65,66,64,62,95,84,57,29.85,29.69,8,0,16,0.11
2013-9-9,74,67,64,67,64,61,96,90,73,29.76,29.68,7,2,17,0.96
2013-9-10,82,70,61,65,61,57,97,75,43,29.85,29.75,7,1,14,0.00
2013-9-11,84,69,57,62,57,52,96,68,36,29.90,29.79,6,2,11,0.00
2013-9-12,88,73,61,64,58,55,86,62,38,29.83,29.66,3,1,9,0.00
2013-9-13,88,79,66,66,60,53,94,55,32,29.73,29.58,10,2,16,0.00
2013-9-14,90,75,61,65,60,54,94,64,30,29.68,29.57,4,1,15,0.00
2013-9-15,90,77,62,61,59,55,85,56,32,29.73,29.63,6,1,11,0.00
2013-9-16,90,77,61,62,58,55,88,57,32,29.79,29.67,9,2,17,0.00
2013-9-17,92,77,63,62,57,49,83,54,24,29.76,29.59,9,1,15,0.00
2013-9-18,93,78,65,64,54,44,76,48,19,29.69,29.54,7,1,13,0.00
2013-9-19,92,76,59,55,50,45,77,44,20,29.70,29.58,5,1,11,0.00
2013-9-20,91,72,60,63,57,47,88,63,33,29.82,29.65,15,2,20,0.42
2013-9-21,85,72,59,63,57,51,92,63,32,29.83,29.66,7,2,13,0.01
2013-9-22,85,74,63,64,57,52,82,58,37,29.67,29.54,12,4,23,0.00
2013-9-23,85,68,50,56,49,43,88,55,23,29.87,29.66,7,1,11,0.00
2013-9-24,90,69,48,49,44,37,90,48,20,29.95,29.77,6,1,18,0.00
2013-9-25,87,70,52,42,38,31,63,34,17,29.81,29.64,8,3,18,0.00
2013-9-26,86,72,56,58,41,29,68,35,22,29.70,29.59,9,3,21,0.00
2013-9-27,77,66,56,58,49,39,79,55,31,29.88,29.62,9,3,18,0.00
2013-9-28,81,64,48,48,42,34,73,47,26,30.01,29.88,5,1,11,0.00
2013-9-29,86,66,46,49,44,40,87,49,23,30.05,29.90,3,0,9,0.00
2013-9-30,88,65,46,44,39,35,78,44,17,29.95,29.79,3,0,9,0.00
2013-10-1,87,67,44,41,38,35,74,40,18,29.94,29.81,5,1,14,0.00
2013-10-2,85,67,46,46,40,32,80,41,15,29.92,29.77,6,2,16,0.00
2013-10-3,85,68,47,50,42,33,82,43,18,29.84,29.69,10,3,19,0.00
2013-10-4,84,69,56,54,41,26,81,42,13,29.90,29.74,10,4,17,0.00
2013-10-5,78,62,48,38,30,18,62,32,19,30.05,29.90,6,2,10,0.00
2013-10-6,81,62,41,29,24,18,51,26,10,30.11,29.99,9,2,15,0.00
2013-10-7,87,67,49,35,30,22,40,26,13,30.06,29.86,9,1,14,0.00
2013-10-8,83,67,51,42,37,32,57,36,17,29.86,29.74,7,2,16,0.00
2013-10-9,81,74,63,49,39,33,51,30,18,29.78,29.67,14,9,31,0.00
2013-10-10,70,61,47,44,39,35,76,46,29,29.87,29.75,16,5,25,0.00
2013-10-11,76,56,36,43,36,29,93,55,20,29.98,29.87,5,1,14,0.00
2013-10-12,82,62,38,41,35,29,82,44,15,29.98,29.84,10,3,21,0.00
2013-10-13,82,66,54,51,43,39,59,46,22,29.92,29.81,15,7,25,0.00
2013-10-14,78,68,61,55,50,46,76,56,33,29.90,29.81,9,3,22,0.00
2013-10-15,81,64,46,51,43,30,88,51,26,29.89,29.76,5,1,13,0.00
2013-10-16,78,57,39,34,24,10,68,34,8,30.03,29.90,4,1,16,0.00
2013-10-17,78,52,31,23,18,11,60,32,8,30.08,29.90,4,1,7,0.00
2013-10-18,77,55,31,24,21,17,63,31,11,30.04,29.94,6,1,12,0.00
2013-10-19,80,58,34,26,20,15,62,28,9,30.08,29.91,4,1,15,0.00
2013-10-20,79,58,35,24,17,6,55,25,6,29.98,29.83,6,1,13,0.00
2013-10-21,80,58,34,21,17,12,50,24,8,30.03,29.92,5,1,8,0.00
2013-10-22,80,59,37,28,21,10,49,26,7,30.09,29.94,8,1,12,0.00
2013-10-23,85,64,46,36,31,26,48,30,14,29.98,29.83,6,1,18,0.00
2013-10-24,85,65,45,42,32,26,54,33,12,29.97,29.84,10,2,16,0.00
2013-10-25,83,61,40,33,29,23,64,34,12,30.05,29.92,5,1,10,0.00
2013-10-26,80,59,37,31,27,21,64,34,12,30.11,29.99,3,0,11,0.00
2013-10-27,83,66,48,36,30,19,54,29,10,30.04,29.76,8,2,17,0.00
2013-10-28,77,63,50,33,29,19,46,29,13,29.89,29.75,19,6,33,0.00
2013-10-29,76,63,52,40,33,24,53,34,15,29.89,29.77,14,6,25,0.00
2013-10-30,72,58,40,45,36,25,71,47,19,29.99,29.80,14,4,23,0.00
2013-10-31,72,50,29,35,24,12,84,44,14,30.13,29.99,4,0,10,0.00
2013-11-1,75,51,28,22,16,9,60,31,9,30.21,30.07,3,0,7,0.00
2013-11-2,78,69,56,35,19,14,36,16,9,30.09,29.88,10,3,18,0.00
2013-11-3,76,61,47,50,44,27,87,55,29,29.88,29.70,12,3,20,0.02
2013-11-4,73,59,44,48,42,39,85,57,30,29.82,29.68,11,3,20,0.00
2013-11-5,69,56,45,45,39,30,86,56,24,30.10,29.77,9,2,17,0.00
2013-11-6,69,53,37,38,29,19,85,45,15,30.25,30.10,7,1,16,0.00
2013-11-7,72,52,39,34,25,15,47,35,19,30.28,30.07,5,1,14,0.00
2013-11-8,76,56,36,40,33,28,71,44,23,30.11,29.95,6,1,11,0.00
2013-11-9,76,56,36,42,34,29,78,47,23,30.12,30.01,5,1,11,0.00
2013-11-10,81,58,38,39,34,30,75,45,20,30.15,29.99,7,1,10,0.00
2013-11-11,80,60,41,41,36,31,70,43,22,30.10,29.96,4,1,9,0.00
2013-11-12,74,60,46,48,42,35,69,52,38,30.21,30.09,11,4,19,0.00
2013-11-13,69,57,48,44,42,39,73,57,40,30.21,30.00,9,3,16,0.00
2013-11-14,76,57,40,45,36,25,87,50,15,30.05,29.87,9,1,18,0.00
2013-11-15,69,60,51,52,47,36,78,63,43,29.88,29.58,23,10,36,0.00
2013-11-16,69,60,52,50,45,40,76,59,34,29.84,29.64,14,7,36,0.00
2013-11-17,72,59,48,48,44,40,88,61,33,30.01,29.84,9,3,20,0.00
2013-11-18,56,54,52,47,45,44,77,73,70,30.00,29.98,0,0,0,0.00
2013-11-19,76,62,50,31,28,21,43,29,14,29.90,29.84,6,1,19,0.00
2013-11-20,74,59,46,43,34,27,64,41,18,29.90,29.75,16,8,26,0.00
2013-11-21,68,59,47,49,44,38,72,60,47,29.90,29.82,10,5,24,0.00
2013-11-22,62,56,47,53,48,39,94,76,61,29.89,29.80,19,8,33,0.31
2013-11-23,46,42,40,42,39,36,93,88,78,30.12,29.88,15,9,25,0.59
2013-11-24,53,43,35,41,37,32,91,80,55,30.19,30.10,8,3,14,0.00
2013-11-25,55,41,29,38,33,27,95,77,43,30.30,30.16,9,2,15,0.01
2013-11-26,57,45,32,35,29,23,92,59,34,30.37,30.24,10,2,18,0.00
2013-11-27,56,45,38,26,25,22,61,46,29,30.29,30.08,9,2,17,0.00
2013-11-28,68,48,29,36,30,24,80,53,29,30.19,30.06,9,2,17,0.00
2013-11-29,71,53,36,45,38,31,88,59,26,30.21,30.07,10,2,19,0.00
2013-11-30,71,53,40,44,38,29,89,63,21,30.17,30.05,5,1,11,0.00
2013-12-1,61,52,44,43,39,36,77,62,46,30.18,30.10,4,0,4,0.00
2013-12-2,73,51,35,42,30,18,92,53,13,30.15,29.93,3,0,4,0.00
2013-12-3,70,56,41,44,31,9,59,41,11,29.95,29.71,19,7,28,0.00
2013-12-4,64,56,50,45,36,22,72,51,20,29.82,29.69,23,9,33,0.00
2013-12-5,53,45,36,43,38,30,91,76,49,30.05,29.77,14,5,22,0.10
2013-12-6,53,37,24,32,26,21,92,69,33,30.21,30.05,4,1,12,0.01
2013-12-7,59,40,23,32,19,9,90,53,14,30.15,30.04,22,8,30,0.00
2013-12-8,57,45,29,32,28,22,79,53,29,30.12,29.99,22,6,31,0.00
2013-12-9,54,39,28,35,25,14,93,61,27,30.34,30.05,8,2,12,0.00
2013-12-10,59,41,24,24,20,16,73,46,25,30.35,30.17,7,1,12,0.00
2013-12-11,65,48,32,40,26,17,57,44,32,30.29,30.17,9,3,15,0.00
2013-12-12,61,51,44,47,36,22,79,57,31,30.23,30.00,9,4,17,0.00
2013-12-13,59,44,30,37,31,27,91,64,31,30.17,30.03,8,1,17,0.01
2013-12-14,59,43,26,32,25,20,91,56,22,30.35,30.18,10,1,13,0.00
2013-12-15,64,44,27,26,20,14,78,44,15,30.39,30.24,4,1,11,0.00
2013-12-16,71,49,30,24,20,17,66,36,13,30.34,30.22,4,0,10,0.00
2013-12-17,74,52,31,26,21,17,67,35,12,30.30,30.15,7,1,13,0.00
2013-12-18,68,53,37,26,24,20,57,33,17,30.16,29.88,8,2,16,0.00
2013-12-19,64,52,41,28,23,15,54,34,16,29.88,29.70,18,6,27,0.00
2013-12-20,49,43,35,41,33,24,91,69,41,29.84,29.58,14,4,25,0.16
2013-12-21,49,41,33,37,33,30,90,74,49,30.07,29.81,13,4,19,0.00
2013-12-22,52,40,28,38,29,22,100,70,31,30.34,30.07,5,0,9,0.00
2013-12-23,59,40,24,32,24,20,89,57,23,30.46,30.34,10,2,14,0.00
2013-12-24,64,42,25,27,24,19,80,53,24,30.38,30.18,5,0,7,0.00
2013-12-25,61,44,26,30,25,21,83,52,25,30.34,30.21,8,2,13,0.00
2013-12-26,58,43,28,27,24,21,78,51,28,30.32,30.19,6,1,11,0.00
2013-12-27,58,40,27,27,23,19,78,53,25,30.33,30.20,11,2,13,0.00
2013-12-28,62,44,25,30,24,17,83,49,22,30.24,30.01,8,1,14,0.00
2013-12-29,62,47,35,28,23,18,66,41,18,30.16,29.96,7,1,11,0.00
2013-12-30,62,42,25,26,20,14,78,46,15,30.34,30.16,4,0,11,0.00
2013-12-31,66,46,32,24,19,15,60,37,14,30.34,30.15,3,0,6,0.00
2014-1-1,42,29,26,21,17,16,68,60,42,30.23,30.16,1,0,1,0.00
2014-1-2,66,55,37,24,22,20,52,29,18,30.26,30.11,10,3,16,0.00